TimeEST,TemperatureF,Dew PointF,Humidity,Sea Level PressureIn,VisibilityMPH,Wind Direction,Wind SpeedMPH,Gust SpeedMPH,PrecipitationIn,Events,Conditions,WindDirDegrees,DateUTC
12:15 AM,26.6,19.4,74,30.12,10.0,SW,6.9,-,N/A,,Overcast,220,2013-02-10 05:15:00
12:35 AM,26.6,19.4,74,30.12,10.0,WSW,9.2,-,N/A,,Overcast,250,2013-02-10 05:35:00
12:55 AM,26.6,19.4,74,30.12,10.0,WSW,5.8,-,N/A,,Overcast,240,2013-02-10 05:55:00
1:15 AM,24.8,19.4,80,30.11,10.0,SW,4.6,-,N/A,,Overcast,230,2013-02-10 06:15:00
1:35 AM,24.8,19.4,80,30.11,10.0,Calm,Calm,-,N/A,,Overcast,0,2013-02-10 06:35:00
1:55 AM,26.6,19.4,74,30.09,10.0,SSW,3.5,-,N/A,,Overcast,200,2013-02-10 06:55:00
2:15 AM,24.8,19.4,80,30.09,10.0,SSW,3.5,-,N/A,,Overcast,210,2013-02-10 07:15:00
2:35 AM,24.8,19.4,80,30.09,10.0,SSW,3.5,-,N/A,,Overcast,210,2013-02-10 07:35:00
2:55 AM,24.8,19.4,80,30.10,10.0,SW,3.5,-,N/A,,Overcast,220,2013-02-10 07:55:00
3:15 AM,24.8,19.4,80,30.10,10.0,South,4.6,-,N/A,,Overcast,180,2013-02-10 08:15:00
3:35 AM,24.8,19.4,80,30.09,9.0,SSE,3.5,-,N/A,,Overcast,150,2013-02-10 08:35:00
3:55 AM,24.8,19.4,80,30.09,7.0,Calm,Calm,-,N/A,,Overcast,0,2013-02-10 08:55:00
4:15 AM,24.8,19.4,80,30.09,7.0,SE,3.5,-,N/A,,Overcast,130,2013-02-10 09:15:00
4:35 AM,24.8,19.4,80,30.08,7.0,SE,3.5,-,N/A,,Overcast,140,2013-02-10 09:35:00
4:55 AM,24.8,21.2,86,30.07,8.0,SSE,3.5,-,N/A,,Overcast,160,2013-02-10 09:55:00
5:15 AM,24.8,19.4,80,30.07,8.0,SSE,3.5,-,N/A,,Overcast,150,2013-02-10 10:15:00
5:35 AM,24.8,21.2,86,30.07,7.0,SSE,3.5,-,N/A,,Overcast,150,2013-02-10 10:35:00
5:55 AM,24.8,21.2,86,30.06,8.0,Calm,Calm,-,N/A,,Overcast,0,2013-02-10 10:55:00
6:15 AM,24.8,21.2,86,30.06,7.0,ESE,3.5,-,N/A,,Overcast,110,2013-02-10 11:15:00
6:35 AM,24.8,21.2,86,30.06,7.0,East,3.5,-,N/A,,Overcast,100,2013-02-10 11:35:00
6:55 AM,24.8,21.2,86,30.06,7.0,East,5.8,-,N/A,,Overcast,100,2013-02-10 11:55:00
7:15 AM,24.8,21.2,86,30.05,7.0,East,5.8,-,N/A,,Overcast,100,2013-02-10 12:15:00
7:35 AM,24.8,21.2,86,30.05,8.0,East,3.5,-,N/A,,Overcast,80,2013-02-10 12:35:00
7:55 AM,26.6,21.2,80,30.05,7.0,East,5.8,-,N/A,,Overcast,90,2013-02-10 12:55:00
8:15 AM,26.6,21.2,80,30.04,7.0,East,5.8,-,N/A,,Overcast,80,2013-02-10 13:15:00
8:35 AM,26.6,21.2,80,30.03,7.0,East,6.9,-,N/A,,Overcast,80,2013-02-10 13:35:00
8:55 AM,26.6,21.2,80,30.03,7.0,NE,6.9,-,N/A,,Overcast,50,2013-02-10 13:55:00
9:15 AM,26.6,21.2,80,30.01,7.0,ENE,5.8,-,N/A,,Overcast,70,2013-02-10 14:15:00
9:35 AM,26.6,23.0,86,30.00,6.0,ENE,6.9,-,N/A,,Overcast,70,2013-02-10 14:35:00
9:55 AM,28.4,24.8,86,29.98,5.0,East,9.2,-,N/A,,Overcast,90,2013-02-10 14:55:00
10:15 AM,30.2,28.4,93,29.96,4.0,SE,12.7,-,N/A,,Overcast,130,2013-02-10 15:15:00
10:35 AM,30.2,26.6,86,29.94,4.0,SE,12.7,-,N/A,,Overcast,130,2013-02-10 15:35:00
10:55 AM,30.2,26.6,86,29.94,5.0,SE,13.8,-,N/A,,Overcast,140,2013-02-10 15:55:00
11:15 AM,32.0,26.6,80,29.94,6.0,ESE,13.8,19.6,N/A,,Overcast,120,2013-02-10 16:15:00
11:35 AM,32.0,26.6,80,29.96,6.0,SE,12.7,-,N/A,,Overcast,130,2013-02-10 16:35:00
11:55 AM,32.0,26.6,80,29.95,7.0,SE,12.7,-,N/A,,Overcast,130,2013-02-10 16:55:00
12:15 PM,32.0,26.6,80,29.95,8.0,SE,12.7,-,N/A,,Overcast,130,2013-02-10 17:15:00
12:35 PM,32.0,26.6,80,29.93,8.0,ESE,10.4,-,N/A,,Overcast,120,2013-02-10 17:35:00
12:55 PM,32.0,26.6,80,29.91,8.0,ESE,12.7,-,N/A,,Overcast,120,2013-02-10 17:55:00
1:15 PM,32.0,26.6,80,29.89,9.0,ESE,12.7,-,N/A,,Overcast,120,2013-02-10 18:15:00
1:35 PM,32.0,26.6,80,29.88,9.0,ESE,11.5,-,N/A,,Overcast,110,2013-02-10 18:35:00
1:55 PM,30.2,26.6,86,29.85,8.0,ESE,13.8,-,N/A,,Overcast,110,2013-02-10 18:55:00
2:15 PM,30.2,26.6,86,29.83,9.0,East,12.7,-,N/A,,Overcast,90,2013-02-10 19:15:00
2:35 PM,30.2,26.6,86,29.81,10.0,East,13.8,-,N/A,,Overcast,90,2013-02-10 19:35:00
2:55 PM,30.2,26.6,86,29.80,10.0,East,16.1,-,N/A,,Overcast,100,2013-02-10 19:55:00
3:15 PM,30.2,24.8,80,29.78,6.0,East,19.6,23.0,N/A,,Overcast,100,2013-02-10 20:15:00
3:35 PM,30.2,24.8,80,29.77,6.0,East,17.3,-,N/A,,Overcast,100,2013-02-10 20:35:00
3:55 PM,30.2,26.6,86,29.74,6.0,East,20.7,25.3,N/A,,Overcast,90,2013-02-10 20:55:00
4:15 PM,30.2,24.8,80,29.72,7.0,East,17.3,-,N/A,,Overcast,90,2013-02-10 21:15:00
4:35 PM,30.2,26.6,86,29.69,8.0,East,17.3,-,N/A,,Overcast,90,2013-02-10 21:35:00
4:55 PM,30.2,26.6,86,29.66,4.0,East,16.1,25.3,N/A,,Overcast,80,2013-02-10 21:55:00
5:15 PM,30.2,28.4,93,29.65,2.5,East,13.8,23.0,N/A,,Overcast,80,2013-02-10 22:15:00
5:35 PM,32.0,28.4,87,29.61,3.0,East,20.7,25.3,N/A,,Overcast,90,2013-02-10 22:35:00
5:55 PM,32.0,28.4,87,29.60,1.8,East,21.9,26.5,0.02,,Overcast,90,2013-02-10 22:55:00
6:15 PM,33.8,28.4,81,29.60,1.8,East,20.7,25.3,0.04,,Overcast,100,2013-02-10 23:15:00
6:35 PM,33.8,30.2,87,29.61,2.5,East,16.1,25.3,0.08,,Overcast,100,2013-02-10 23:35:00
6:55 PM,33.8,30.2,87,29.58,3.0,ESE,20.7,27.6,0.10,,Overcast,110,2013-02-10 23:55:00
7:15 PM,33.8,30.2,87,29.58,4.0,ESE,18.4,-,N/A,,Overcast,110,2013-02-11 00:15:00
7:35 PM,33.8,30.2,87,29.57,3.0,ESE,17.3,23.0,0.01,,Overcast,110,2013-02-11 00:35:00
7:55 PM,33.8,30.2,87,29.56,2.0,ESE,19.6,-,0.02,,Overcast,110,2013-02-11 00:55:00
8:15 PM,33.8,30.2,87,29.55,2.0,ESE,17.3,24.2,0.01,,Overcast,110,2013-02-11 01:15:00
8:35 PM,33.8,30.2,87,29.54,2.5,ESE,17.3,-,0.01,,Overcast,110,2013-02-11 01:35:00
8:55 PM,32.0,30.2,93,29.53,2.0,ESE,17.3,-,0.01,,Overcast,110,2013-02-11 01:55:00
9:15 PM,32.0,30.2,93,29.52,1.5,ESE,16.1,-,N/A,,Overcast,110,2013-02-11 02:15:00
9:35 PM,32.0,30.2,93,29.50,1.8,East,15.0,-,N/A,,Overcast,100,2013-02-11 02:35:00
9:55 PM,33.8,30.2,87,29.49,2.5,East,12.7,-,N/A,,Overcast,100,2013-02-11 02:55:00
10:15 PM,33.8,30.2,87,29.47,3.0,East,10.4,-,N/A,,Overcast,100,2013-02-11 03:15:00
10:35 PM,33.8,32.0,93,29.46,2.5,East,10.4,-,N/A,,Overcast,100,2013-02-11 03:35:00
10:55 PM,33.8,32.0,93,29.44,2.5,ESE,9.2,-,N/A,,Overcast,110,2013-02-11 03:55:00
11:35 PM,35.6,33.8,93,29.40,2.0,ENE,10.4,-,N/A,,Overcast,70,2013-02-11 04:35:00
11:55 PM,35.6,33.8,93,29.39,1.5,ENE,3.5,-,N/A,,Overcast,70,2013-02-11 04:55:00